Regional Weather Roundup
Issued by NWS Wakefield, VA

Home | Current Version | Previous Version | Graphics & Text | Print | Product List | Glossary On
Versions: 1 2 3 4 5 6 7 8 9 10 11 12 13 14 15 16 17 18 19 20 21 22 23 24 25 26 27 28 29 30 31 32 33 34 35 36 37 38 39 40 41 42 43 44 45 46 47 48 49 50
000
ASUS41 KAKQ 061010
RWRAKQ

REGIONAL WEATHER ROUNDUP
NATIONAL WEATHER SERVICE WAKEFIELD VA
500 AM EST FRI MAR 06 2015

Note: "fair" indicates few or no clouds below 12,000 feet with no
significant weather and/or obstructions to visibility. * = Denotes
station may not report precipitation (e.g., rain,snow,etc.),
thunder or fog.

VAZ042-051-052>054-056-061100-
NORTHERN VIRGINIA

CITY           SKY/WX    TMP DP  RH WIND       PRES   REMARKS
WASH NATIONAL  PTCLDY    17   2  51 N12       30.54R WCI   4
DULLES         PTCLDY    12   0  58 N9        30.53R
FORT BELVOIR   PTCLDY    15   2  57 N6        30.55R
QUANTICO       PTCLDY    16   3  56 N10       30.56R WCI   4
FREDERICKSBRG* PTCLDY    16   7  65 N6        30.54R
STAFFORD*      PTCLDY    12   1  59 CALM      30.58R
WARRENTON      PTCLDY    13   6  76 NW9       30.51R
CULPEPER*      PTCLDY    16   3  57 N10       30.52R WCI   3
MANASSAS*      MOCLDY    12   3  67 N8        30.54R
LEESBURG*      PTCLDY    14   3  62 NW9       30.54R
WINCHESTER     MOCLDY    12   0  57 CALM      30.51R
FRONT ROYAL*   FAIR       9   3  78 CALM      30.49R
LURAY*         FAIR       3   1  92 S3        30.48R
$$

VAZ048-049-060>072-079>083-061100-
CENTRAL AND SOUTH CENTRAL VIRGINIA

CITY           SKY/WX    TMP DP  RH WIND       PRES   REMARKS
RICHMOND       PTCLDY    18   6  59 N17       30.50R WCI   3
CHESTERFIELD*  FAIR      18   0  45 N9G16     30.50R
PETERSBURG*    CLEAR     20  10  63 N9G17     30.50R
HANOVER        FAIR      16   7  67 N6        30.52R
TAPPAHANNOCK*  FAIR      17   6  60 NW6       30.51R
QUINTON*       FAIR      17   8  66 N3        30.51R
CHARLOTTSVILLE PTCLDY    13   6  74 N3        30.49R
GORDONSVILLE*  FAIR       7   2  78 NE3       30.51R
ORANGE*        PTCLDY    14   5  67 NW6       30.52R
LOUISA*        CLEAR     12   7  79 N3        30.49R
BUMPASS*       FAIR      15   4  61 N10       30.50R WCI   3
FARMVILLE*     PTCLDY    18  17  94 NE7         N/A
CREWE*         FAIR      17  11  75 N3        30.48R
FORT PICKETT*  FAIR      18  12  79 N7        30.47R
CHASE CITY*    FAIR      22  19  89 NE6       30.46R
CLARKSVILLE*   FAIR      23  19  86 N7        30.45R
SOUTH HILL*    CLEAR     19  12  73 N6        30.52R
LAWRENCEVILLE* FAIR      19  11  68 N6        30.46R
EMPORIA*       CLEAR     21  10  63 NW12G17   30.49R WCI   9
$$

VAZ088>098-061100-
SOUTHEAST VIRGINIA

CITY           SKY/WX    TMP DP  RH WIND       PRES   REMARKS
NORFOLK        MOCLDY    26  15  63 N20G30    30.44R WCI  12
VIRGINIA BEACH FAIR      26  16  65 N21G26    30.43R WCI  12
NORFOLK NAVAL  MOCLDY    27  16  63 N18G29    30.47R WCI  14
WEST POINT*    FAIR      21  12  68 NW6       30.52R
SALUDA*        FAIR      19  10  66 N13G18    30.48R WCI   7
NEWPORT NEWS   CLEAR     24  12  60 N12       30.47R WCI  13
LANGLEY AFB    PTCLDY    23  14  70 N13       30.46R WCI  11
FORT EUSTIS    CLEAR     22  13  68 N10       30.46R WCI  11
WILLIAMSBURG*    N/A    N/A N/A N/A MISG      30.48R
HR EXEC AP*      N/A    N/A N/A N/A MISG        N/A
FRANKLIN*      CLEAR     22  13  69 N7G17     30.47R
WAKEFIELD      CLEAR     21  10  62 N10G21    30.48R WCI  10
$$

VAZ020-022-025-037-045-061100-
WEST CENTRAL AND SOUTHWEST VIRGINIA

CITY           SKY/WX    TMP DP  RH WIND       PRES   REMARKS
STAUNTON*      PTCLDY     2  -1  85 CALM      30.47R
WAYNESBORO*    FAIR       8   3  81 NW3       30.42R
HOT SPRINGS VA MOCLDY     4   2  92 NW7       30.17S
LYNCHBURG      PTCLDY    18  13  80 NE5       30.45R
DANVILLE       MOCLDY    25  14  63 N8        30.45R
SOUTH BOSTON*  PTSUNNY   23  16  75 NE8       30.47R
MARTINSVILLE   CLEAR     20  12  71 N7        30.45S
ROANOKE        PTCLDY    15   6  67 NW6       30.45R
BLACKSBURG     PTCLDY     8   4  81 CALM      30.38S
DUBLIN*        PTCLDY    14  10  81 NW6       30.38R
MARION*        FLURRIES  13   8  80 W3        30.37R
HILLSVILLE*    PTCLDY    11   7  81 N7        30.30R
RICHLANDS*     FLURRIES   8   3  80 NE3       30.34R
WISE*          FLURRIES  10   9  92 CALM      30.35S
ABINGDON*      CLOUDY    15  11  83 CALM      30.39R
$$

MDZ021>025-VAZ099-100-061100-
SOUTHERN MARYLAND AND THE DELMARVA PENINSULA

CITY           SKY/WX    TMP DP  RH WIND       PRES   REMARKS
PATUXENT RIVER PTCLDY    16   6  65 NW15      30.50R WCI   1
BAY BRIDGE APT   N/A     19   5  53 N10       30.52R WCI   8
LEONARDTOWN    PTCLDY    18   9  68 CALM      30.51R
DOVER          PTCLDY    11   3  71 N13       30.51R WCI  -4
GEORGETOWN     MIX PCPN  15   7  70 N3        30.49R
EASTON         PTCLDY    17   8  68 NE7       30.54R
CAMBRIDGE      PTCLDY    21  10  63 N9        30.49R
SALISBURY      PTCLDY    19   7  59 N9        30.47R
OCEAN CITY     CLEAR     18   7  62 N15G28    30.46R WCI   4
WALLOPS ISLAND CLEAR     18   9  68 N14G20    30.47R WCI   4
ACCOMACK*      CLEAR     21   9  58 N13G25    30.45R WCI   9
$$

NCZ012>017-030>032-061100-
NORTH CENTRAL AND EASTERN NORTH CAROLINA

CITY           SKY/WX    TMP DP  RH WIND       PRES   REMARKS
ROANOKE RAPIDS FAIR      25  14  63 N8G17     30.45R
RALEIGH        MOCLDY    28  19  69 N9        30.43R
ELIZABETH CITY CLOUDY    27  19  72 N17G31    30.42R WCI  14
AHOSKIE*       CLEAR     24  16  71 N12G17    30.46R WCI  13
EDENTON*       CLOUDY    28  22  78 N10       30.41R WCI  19
CURRITUCK*     CLOUDY    28  18  66 N16G25    30.43R WCI  15
KILL DEVIL HLS CLOUDY    28  21  75 N12G24    30.37S WCI  18
MANTEO         CLOUDY    28  21  75 N24G32    30.39R WCI  14
CAPE HATTERAS  CLOUDY    31  25  78 N18G37    30.34R WCI  19
TARBORO*       CLOUDY    27  10  47 N18G28    30.45R WCI  14
GOLDSBORO      CLOUDY    30  26  85 N14G23    30.39R WCI  19
WASHINGTON     CLOUDY    28  19  67 N13       30.42R WCI  18
GREENVILLE     CLOUDY    28  18  64 N16G22    30.42R WCI  17
NEW BERN       CLOUDY    31  22  69 N16G25    30.39R WCI  20
WILMINGTON     CLOUDY    33  27  78 N18G30    30.35R WCI  22
$$

VAZ048-061100-
ELSEWHERE

CITY           SKY/WX    TMP DP  RH WIND       PRES   REMARKS
HARRISBURG PA  PTCLDY     7  -2  66 NW7       30.52R
BALTIMORE      PTCLDY    12   3  67 NW7       30.51R
ANNAPOLIS      PTCLDY    17   7  64 N8        30.53R
ANDREWS AFB    PTCLDY    13   2  60 NW9       30.51R
PHILADELPHIA   CLEAR     13   2  61 N10       30.52R WCI   0
HENDERSON NC   MOCLDY    23  18  78 CALM      30.44R
GREENSBORO     PTCLDY    23  14  68 N8G17     30.40R
ROCKY MOUNT    CLOUDY    27  15  61 N21G29    30.43R WCI  13
$$

VAZ100-061100-
MARINE

STATION/POSITION TIME  TEMP    WIND        PRES    WAVE   SWELL
                       AIR SEA DIR/SP/G            HT/PER HT/PER
                 (UTC) (F)     (DEG/KT/KT) (MB)    (FT/S) (FT/S)
BRANDYWINE LGT   1000      30              1031.9R
CAPE MAY NJ      1000      32              1031.8R
LEWES DE         1000      29              1032.2R
15NM E FENWICK I 1000   21 35              1030.4R   8/ 7
OCEAN-CITY-INLET 1000      32              1030.6R
WACHAPREAGUE VA  1000      37              1031.4R
THOMAS POINT MD  1000          140/ 14/ 16   N/A
COVE POINT MD    1000                      1032.2R
SOLOMONS ISLAND  1000      32                N/A
BISHOPS HEAD MD  1000      30              1031.8R
CAMBRIDGE MD     1000      32              1032.7R
LEWISETTA VA     1000      32              1032.6R
RAPPAHANNOCK LGT 1000                      1031.6R
STINGRAY PT      1000   24 33   10/ 19/ 23   N/A     3/ 3
YORK RVR RNG VA  1000                      1030.7R
YORKTOWN VA      1000      34              1031.7R
DOMINION TERM VA 1000                      1031.6R
KIPTOPEKE VA     1000      38                N/A
CHES BAY BRIDGE  1000      33              1030.4R
CAPE HENRY VA    1000                      1029.2R
CHESAPEAKE LGHT  0900   26      10/ 30/ 32 1029.3R
WILLOUBY STN VA  1000                      1031.5R
S CRANEY ISL VA  1000                      1030.9R
CAPE HENRY BUOY  1000      35                N/A     8/ 8   2/11
1ST LANDING BUOY 1000   26 33   10/ 21/ 27 1030.3R   4/ 4
OFFSHORE WE BUOY 1000      36                N/A    10/ 8   3/22
64NM E OF VA BCH 1000   34 52   10/ 27/ 33 1027.2R  12/ 8   8/ 8
DUCK PIER NC     1000      36              1028.0R
44100 DUCK FRF   1000      38                N/A    10/ 8   2/11
44056 DUCK FRF   1000      35                N/A     9/ 7   2/11
OREGON INLET NC  1000      40              1028.4S
HATTERAS NC      1000      47              1026.9F
CAPE LOOKOUT NC  1000           10/ 26/ 34 1026.9R
$$



USA.gov is the U.S. government's official web portal to all federal, state and local government web resources and services.